INTELSAT 901 (IS-901)

Last updated on Thu Nov 21 2024 00:02:40 GMT+0000 (Coordinated Universal Time)

1 26824U 01024A 24325.27688567 -.00000201 00000+0 00000+0 0 9996 2 26824 0.0721 90.0645 0001228 212.6274 189.3003 1.00270133 17239
UTC large
Height (km)
Speed (km/s)
/
Latitude / Longitude
Inclination (degrees)
Orbital Period (minutes)
Azimuth
Elevation
Range (km)
Doppler Factor

Next 0 passes for location: London (51.5072 / 0.1276)

Sorry there are no passes over London.